Detroit, MI

5:56 AM EDT on April 23, 2018 (GMT -0400)
Detroit City

Weather History for KDET - February, 2012

Change the Weather History Date:

Saturday, February 11, 2012

  Actual Average Record
Temperature  
Mean Temperature 16 °F -  
Max Temperature 19 °F 31 °F 68 °F (1999)
Min Temperature 12 °F 17 °F -2 °F (1982)
Degree Days  
Heating Degree Days 50    
Moisture  
Dew Point 9 °F    
Average Humidity 75    
Maximum Humidity 93    
Minimum Humidity 52    
Precipitation  
Precipitation 0.00 in - - ()
Sea Level Pressure  
Sea Level Pressure 30.05 in    
Wind  
Wind Speed 15 mph (NNW)    
Max Wind Speed 21 mph    
Max Gust Speed 33 mph    
Visibility 6 miles    
Events Snow    
Averages and records for this station are not official NWS values.
T = Trace of Precipitation, MM = Missing Value Source: NWS Daily Summary

Daily Weather History Graph

Daily Weather History Graph

Search for Another Location

Airport or City:

Astronomy

Feb. 11, 2012 Rise Set
Actual Time 7:34 AM EST 5:58 PM EST
Civil Twilight 7:05 AM EST 6:27 PM EST
Nautical Twilight 6:32 AM EST 7:00 PM EST
Astronomical Twilight 5:59 AM EST 7:33 PM EST
Moon 10:53 PM EST (2/11) 9:09 AM EST (2/11)
Length of Visible Light 11h 22m
Length of Day
10h 23m
Waning Gibbous, 82% of the Moon is Illuminated
Feb 11
Waning Gibbous
Feb 14
Last Quarter
Feb 21
New
Feb 29
First Quarter
Mar 8
Full

Hourly Weather History & Observations

Time (EST) Temp. Windchill Dew Point Humidity Pressure Visibility Wind Dir Wind Speed Gust Speed Precip Events Conditions
12:02 AM 19.4 °F 3.2 °F 17.6 °F 93% 29.88 in 1.5 mi North 20.7 mph 27.6 mph 0.00 in Snow Light Snow
12:14 AM 19.4 °F 5.0 °F 17.6 °F 93% 29.88 in 2.0 mi North 16.1 mph 25.3 mph 0.00 in Snow Light Snow
12:21 AM 19.4 °F 5.0 °F 17.6 °F 93% 29.89 in 1.5 mi North 16.1 mph 24.2 mph 0.00 in Snow Light Snow
12:53 AM 19.0 °F 3.6 °F 16.0 °F 88% 29.91 in 1.2 mi North 18.4 mph 26.5 mph 0.00 in Snow Light Snow
1:53 AM 19.0 °F 5.0 °F 15.1 °F 85% 29.93 in 1.5 mi North 15.0 mph 28.8 mph 0.00 in   Overcast
2:22 AM 17.6 °F 1.3 °F 14.0 °F 86% 29.90 in 2.0 mi North 19.6 mph 27.6 mph 0.00 in Snow Light Snow
2:53 AM 18.0 °F 2.6 °F 12.9 °F 81% 29.95 in 2.0 mi North 17.3 mph 27.6 mph 0.00 in Snow Light Snow
3:29 AM 17.6 °F 0.9 °F 12.2 °F 79% 29.91 in 2.5 mi North 20.7 mph 33.4 mph 0.00 in Snow Light Snow
3:41 AM 17.6 °F 3.2 °F 12.2 °F 79% 29.91 in 4.0 mi North 15.0 mph 23.0 mph 0.00 in Snow Light Snow
3:53 AM 17.1 °F 2.0 °F 10.9 °F 77% 29.95 in 3.0 mi North 16.1 mph 32.2 mph 0.00 in Snow Light Snow
4:23 AM 17.6 °F 2.7 °F 10.4 °F 73% 29.92 in 2.5 mi North 16.1 mph 26.5 mph 0.00 in Snow Light Snow
4:39 AM 17.6 °F 3.7 °F 10.4 °F 73% 29.93 in 3.0 mi NNW 13.8 mph 26.5 mph 0.00 in Snow Light Snow
4:53 AM 16.0 °F 1.1 °F 10.9 °F 81% 29.96 in 4.0 mi NNW 15.0 mph 23.0 mph 0.00 in Snow Light Snow
5:53 AM 14.0 °F -1.4 °F 9.0 °F 80% 29.98 in 3.0 mi NNW 15.0 mph 21.9 mph 0.00 in Snow Light Snow
6:01 AM 14.0 °F -0.8 °F 8.6 °F 79% 29.96 in 3.0 mi NNW 13.8 mph 23.0 mph 0.00 in Snow Light Snow
6:23 AM 14.0 °F -0.2 °F 8.6 °F 79% 29.97 in 8.0 mi NNW 12.7 mph 23.0 mph 0.00 in Snow Light Snow
6:53 AM 14.0 °F 0.5 °F 8.1 °F 77% 30.01 in 8.0 mi NNW 11.5 mph 23.0 mph 0.00 in Snow Light Snow
7:50 AM 12.2 °F -4.8 °F 8.6 °F 85% 30.02 in 2.0 mi NNW 17.3 mph 25.3 mph 0.00 in Snow Light Snow
7:53 AM 12.9 °F -2.2 °F 8.1 °F 81% 30.05 in 1.8 mi NNW 13.8 mph 25.3 mph 0.00 in Snow Light Snow
8:12 AM 12.2 °F -2.5 °F 8.6 °F 85% 30.03 in 2.5 mi NNW 12.7 mph 23.0 mph 0.00 in Snow Light Snow
8:21 AM 12.2 °F -3.7 °F 6.8 °F 79% 30.03 in 5.0 mi NNW 15.0 mph 23.0 mph 0.00 in Snow Light Snow
8:32 AM 12.2 °F -3.7 °F 6.8 °F 79% 30.04 in 8.0 mi NNW 15.0 mph 26.5 mph 0.00 in Snow Light Snow
8:53 AM 12.9 °F -2.8 °F 6.1 °F 74% 30.08 in 10.0 mi NNW 15.0 mph 24.2 mph 0.00 in   Overcast
9:53 AM 12.9 °F -1.6 °F 5.0 °F 71% 30.12 in 10.0 mi NNW 12.7 mph 25.3 mph N/A   Partly Cloudy
10:53 AM 15.1 °F -1.1 °F 5.0 °F 64% 30.14 in 10.0 mi NNW 17.3 mph 27.6 mph N/A   Partly Cloudy
11:15 AM 15.8 °F 0.3 °F 5.0 °F 62% 30.11 in 10.0 mi North 16.1 mph 27.6 mph N/A   Mostly Cloudy
11:53 AM 16.0 °F 1.1 °F 6.1 °F 65% 30.16 in 10.0 mi NNW 15.0 mph 24.2 mph 0.00 in   Mostly Cloudy
12:53 PM 15.1 °F 1.1 °F 5.0 °F 64% 30.16 in 10.0 mi NNW 12.7 mph 21.9 mph 0.00 in   Mostly Cloudy
1:37 PM 15.8 °F 1.4 °F 3.2 °F 58% 30.13 in 10.0 mi North 13.8 mph 21.9 mph N/A   Scattered Clouds
1:53 PM 15.1 °F 1.1 °F 3.9 °F 61% 30.17 in 10.0 mi NNW 12.7 mph 20.7 mph N/A   Partly Cloudy
2:53 PM 16.0 °F 1.1 °F 3.9 °F 59% 30.17 in 10.0 mi North 15.0 mph 21.9 mph N/A   Clear
3:53 PM 17.1 °F 3.6 °F 1.9 °F 52% 30.20 in 10.0 mi North 12.7 mph 19.6 mph N/A   Clear
4:53 PM 17.1 °F 5.8 °F 3.9 °F 56% 30.20 in 10.0 mi WNW 9.2 mph 16.1 mph N/A   Partly Cloudy
5:53 PM 16.0 °F 6.3 °F 5.0 °F 62% 30.22 in 10.0 mi NW 6.9 mph - N/A   Partly Cloudy
6:53 PM 16.0 °F - 6.1 °F 65% 30.22 in 10.0 mi Calm Calm - N/A   Overcast
7:53 PM 15.1 °F 7.7 °F 7.0 °F 70% 30.22 in 10.0 mi WSW 4.6 mph - N/A   Partly Cloudy
8:53 PM 16.0 °F 7.4 °F 9.0 °F 74% 30.21 in 10.0 mi West 5.8 mph - N/A   Clear
9:53 PM 17.1 °F 7.6 °F 10.0 °F 74% 30.21 in 10.0 mi West 6.9 mph - N/A   Partly Cloudy
10:53 PM 19.0 °F 5.0 °F 9.0 °F 65% 30.20 in 10.0 mi WNW 15.0 mph 21.9 mph N/A   Overcast
11:28 PM 19.4 °F 7.2 °F 8.6 °F 63% 30.16 in 9.0 mi WNW 11.5 mph 18.4 mph N/A   Overcast
11:53 PM 17.1 °F 2.5 °F 8.1 °F 68% 30.20 in 9.0 mi WNW 15.0 mph 24.2 mph 0.00 in   Overcast